Time,TemperatureF,DewpointF,PressureIn,WindDirection,WindDirectionDegrees,WindSpeedMPH,WindSpeedGustMPH,Humidity,HourlyPrecipIn,Conditions,Clouds,dailyrainin,SoftwareType,DateUTC
2013-05-11 00:02:00,45.0,42.0,29.95,NNE,19,4.0,10.0,90,0.00,,,0.01,,2013-05-11 05:02:00,
2013-05-11 00:12:00,45.0,42.0,29.95,NNE,19,4.0,10.0,90,0.00,,,0.01,,2013-05-11 05:12:00,
2013-05-11 00:21:00,45.0,42.0,29.95,NNE,15,4.0,8.0,90,0.00,,,0.01,,2013-05-11 05:21:00,
2013-05-11 00:32:00,45.0,42.0,29.96,North,5,5.0,11.0,90,0.00,,,0.00,,2013-05-11 05:32:00,
2013-05-11 00:42:00,45.0,42.0,29.96,North,5,5.0,11.0,90,0.00,,,0.00,,2013-05-11 05:42:00,
2013-05-11 00:52:00,45.0,42.0,29.96,NNE,24,5.0,9.0,89,0.00,,,0.00,,2013-05-11 05:52:00,
2013-05-11 01:02:00,45.0,42.0,29.96,North,360,3.0,6.0,89,0.00,,,0.00,,2013-05-11 06:02:00,
2013-05-11 01:12:00,45.0,42.0,29.96,North,360,3.0,6.0,89,0.00,,,0.00,,2013-05-11 06:12:00,
2013-05-11 01:21:00,45.0,42.0,29.96,North,360,3.0,6.0,89,0.00,,,0.00,,2013-05-11 06:21:00,
2013-05-11 01:32:00,45.0,42.0,29.96,North,355,4.0,7.0,90,0.00,,,0.00,,2013-05-11 06:32:00,
2013-05-11 01:42:00,45.0,42.0,29.97,NNE,25,2.0,6.0,90,0.00,,,0.00,,2013-05-11 06:42:00,
2013-05-11 01:52:00,45.0,42.0,29.97,NNE,25,2.0,6.0,90,0.00,,,0.00,,2013-05-11 06:52:00,
2013-05-11 02:02:00,45.0,42.0,29.97,NNE,23,2.0,6.0,90,0.00,,,0.00,,2013-05-11 07:02:00,
2013-05-11 02:11:00,45.0,42.0,29.97,NNE,23,2.0,6.0,90,0.00,,,0.00,,2013-05-11 07:11:00,
2013-05-11 02:21:00,45.0,42.0,29.97,North,360,1.0,4.0,90,0.00,,,0.00,,2013-05-11 07:21:00,
2013-05-11 02:32:00,45.0,42.0,29.97,North,350,1.0,3.0,90,0.00,,,0.00,,2013-05-11 07:32:00,
2013-05-11 02:42:00,45.0,42.0,29.97,North,350,1.0,3.0,90,0.00,,,0.00,,2013-05-11 07:42:00,
2013-05-11 02:52:00,45.0,43.0,29.97,North,350,0.0,2.0,91,0.00,,,0.00,,2013-05-11 07:52:00,
2013-05-11 03:01:00,45.0,43.0,29.97,North,350,0.0,2.0,91,0.00,,,0.00,,2013-05-11 08:01:00,
2013-05-11 03:12:00,45.0,43.0,29.97,North,350,0.0,2.0,91,0.00,,,0.00,,2013-05-11 08:12:00,
2013-05-11 03:21:00,45.0,43.0,29.97,North,350,0.0,1.0,91,0.00,,,0.00,,2013-05-11 08:21:00,
2013-05-11 03:32:00,45.0,43.0,29.97,North,350,0.0,2.0,92,0.00,,,0.00,,2013-05-11 08:32:00,
2013-05-11 03:42:00,45.0,43.0,29.97,North,350,0.0,2.0,92,0.00,,,0.00,,2013-05-11 08:42:00,
2013-05-11 03:52:00,45.0,43.0,29.97,North,350,0.0,2.0,92,0.00,,,0.00,,2013-05-11 08:52:00,
2013-05-11 04:01:00,45.0,43.0,29.97,North,350,0.0,2.0,92,0.00,,,0.00,,2013-05-11 09:01:00,
2013-05-11 04:11:00,45.0,43.0,29.97,North,350,0.0,2.0,92,0.00,,,0.00,,2013-05-11 09:11:00,
2013-05-11 04:21:00,45.0,43.0,29.97,North,350,0.0,1.0,94,0.00,,,0.00,,2013-05-11 09:21:00,
2013-05-11 04:32:00,45.0,43.0,29.96,North,350,0.0,0.0,94,0.00,,,0.00,,2013-05-11 09:32:00,
2013-05-11 04:42:00,45.0,43.0,29.96,North,350,0.0,0.0,94,0.00,,,0.00,,2013-05-11 09:42:00,
2013-05-11 04:52:00,46.0,45.0,29.96,North,350,0.0,1.0,95,0.00,,,0.00,,2013-05-11 09:52:00,
2013-05-11 05:03:00,46.0,45.0,29.96,South,173,1.0,2.0,95,0.00,,,0.00,,2013-05-11 10:03:00,
2013-05-11 05:12:00,46.0,45.0,29.96,South,173,1.0,2.0,95,0.00,,,0.00,,2013-05-11 10:12:00,
2013-05-11 05:22:00,46.0,45.0,29.96,WSW,240,0.0,3.0,95,0.00,,,0.00,,2013-05-11 10:22:00,
2013-05-11 05:33:00,46.0,45.0,29.95,West,264,0.0,2.0,95,0.00,,,0.00,,2013-05-11 10:33:00,
2013-05-11 05:42:00,46.0,45.0,29.95,West,264,0.0,2.0,95,0.00,,,0.00,,2013-05-11 10:42:00,
2013-05-11 05:52:00,46.0,45.0,29.94,WSW,241,0.0,2.0,95,0.00,,,0.00,,2013-05-11 10:52:00,
2013-05-11 06:02:00,46.0,45.0,29.94,WSW,250,0.0,2.0,95,0.00,,,0.00,,2013-05-11 11:02:00,
2013-05-11 06:12:00,46.0,45.0,29.94,WSW,250,0.0,2.0,95,0.00,,,0.00,,2013-05-11 11:12:00,
2013-05-11 06:21:00,46.0,45.0,29.94,West,263,0.0,2.0,95,0.00,,,0.00,,2013-05-11 11:21:00,
2013-05-11 06:32:00,46.0,45.0,29.94,NW,307,0.0,2.0,96,0.00,,,0.00,,2013-05-11 11:32:00,
2013-05-11 06:42:00,46.0,45.0,29.94,NW,307,0.0,2.0,96,0.00,,,0.00,,2013-05-11 11:42:00,
2013-05-11 06:51:00,46.0,45.0,29.94,NW,319,0.0,4.0,95,0.00,,,0.00,,2013-05-11 11:51:00,
2013-05-11 07:01:00,47.0,46.0,29.94,WNW,291,0.0,3.0,96,0.00,,,0.00,,2013-05-11 12:01:00,
2013-05-11 07:11:00,47.0,46.0,29.94,WNW,291,0.0,3.0,96,0.00,,,0.00,,2013-05-11 12:11:00,
2013-05-11 07:22:00,47.0,46.0,29.94,NW,311,0.0,3.0,95,0.00,,,0.00,,2013-05-11 12:22:00,
2013-05-11 07:32:00,47.0,46.0,29.93,WNW,291,0.0,3.0,95,0.00,,,0.00,,2013-05-11 12:32:00,
2013-05-11 07:42:00,47.0,46.0,29.93,WNW,291,0.0,3.0,95,0.00,,,0.00,,2013-05-11 12:42:00,
2013-05-11 07:51:00,48.0,46.0,29.93,West,275,1.0,5.0,94,0.00,,,0.00,,2013-05-11 12:51:00,
2013-05-11 08:02:00,48.0,46.0,29.93,North,5,1.0,5.0,93,0.00,,,0.00,,2013-05-11 13:02:00,
2013-05-11 08:11:00,48.0,46.0,29.93,North,5,1.0,5.0,93,0.00,,,0.00,,2013-05-11 13:11:00,
2013-05-11 08:21:00,49.0,46.0,29.93,North,11,2.0,8.0,91,0.00,,,0.00,,2013-05-11 13:21:00,
2013-05-11 08:32:00,49.0,46.0,29.93,NW,319,1.0,7.0,89,0.00,,,0.00,,2013-05-11 13:32:00,
2013-05-11 08:42:00,49.0,46.0,29.93,NW,319,1.0,7.0,89,0.00,,,0.00,,2013-05-11 13:42:00,
2013-05-11 08:52:00,49.0,46.0,29.93,NNW,346,1.0,5.0,89,0.00,,,0.00,,2013-05-11 13:52:00,
2013-05-11 09:02:00,50.0,47.0,29.93,WNW,284,2.0,6.0,88,0.00,,,0.00,,2013-05-11 14:02:00,
2013-05-11 09:11:00,50.0,47.0,29.93,WNW,284,2.0,6.0,88,0.00,,,0.00,,2013-05-11 14:11:00,
2013-05-11 09:21:00,50.0,47.0,29.93,North,360,0.0,5.0,88,0.00,,,0.00,,2013-05-11 14:21:00,
2013-05-11 09:32:00,51.0,48.0,29.93,WSW,254,2.0,6.0,88,0.00,,,0.00,,2013-05-11 14:32:00,
2013-05-11 09:41:00,51.0,48.0,29.93,WSW,254,2.0,6.0,88,0.00,,,0.00,,2013-05-11 14:41:00,
2013-05-11 09:51:00,51.0,47.0,29.93,WSW,252,2.0,7.0,87,0.00,,,0.00,,2013-05-11 14:51:00,
2013-05-11 10:01:00,52.0,48.0,29.93,SW,219,1.0,7.0,87,0.00,,,0.00,,2013-05-11 15:01:00,
2013-05-11 10:11:00,52.0,48.0,29.93,SW,219,1.0,7.0,87,0.00,,,0.00,,2013-05-11 15:11:00,
2013-05-11 10:21:00,53.0,49.0,29.92,WSW,246,1.0,6.0,85,0.00,,,0.00,,2013-05-11 15:21:00,
2013-05-11 10:32:00,54.0,50.0,29.91,WSW,249,2.0,10.0,86,0.00,,,0.00,,2013-05-11 15:32:00,
2013-05-11 10:43:00,54.0,50.0,29.91,WSW,249,2.0,10.0,86,0.00,,,0.00,,2013-05-11 15:43:00,
2013-05-11 10:53:00,54.0,50.0,29.91,SSW,203,3.0,10.0,86,0.00,,,0.00,,2013-05-11 15:53:00,
2013-05-11 11:02:00,55.0,50.0,29.90,SW,221,3.0,12.0,84,0.00,,,0.00,,2013-05-11 16:02:00,
2013-05-11 11:12:00,55.0,50.0,29.90,SW,221,3.0,12.0,84,0.00,,,0.00,,2013-05-11 16:12:00,
2013-05-11 11:23:00,57.0,51.0,29.89,South,181,4.0,10.0,81,0.00,,,0.00,,2013-05-11 16:23:00,
2013-05-11 11:33:00,57.0,51.0,29.88,SSW,205,6.0,16.0,79,0.00,,,0.00,,2013-05-11 16:33:00,
2013-05-11 11:42:00,57.0,51.0,29.88,SSW,205,6.0,16.0,79,0.00,,,0.00,,2013-05-11 16:42:00,
2013-05-11 11:52:00,57.0,51.0,29.89,SW,232,3.0,13.0,81,0.00,,,0.00,,2013-05-11 16:52:00,
2013-05-11 12:02:00,56.0,51.0,29.88,SW,220,2.0,7.0,82,0.00,,,0.00,,2013-05-11 17:02:00,
2013-05-11 12:12:00,56.0,51.0,29.88,SW,220,2.0,7.0,82,0.00,,,0.00,,2013-05-11 17:12:00,
2013-05-11 12:22:00,56.0,51.0,29.88,SW,234,2.0,12.0,83,0.00,,,0.00,,2013-05-11 17:22:00,
2013-05-11 12:32:00,57.0,52.0,29.88,SW,231,2.0,8.0,83,0.00,,,0.00,,2013-05-11 17:32:00,
2013-05-11 12:42:00,57.0,52.0,29.88,SW,231,2.0,8.0,83,0.00,,,0.00,,2013-05-11 17:42:00,
2013-05-11 12:52:00,57.0,52.0,29.87,WSW,250,4.0,10.0,84,0.00,,,0.00,,2013-05-11 17:52:00,
2013-05-11 13:01:00,58.0,53.0,29.87,NNW,340,4.0,8.0,82,0.00,,,0.00,,2013-05-11 18:01:00,
2013-05-11 13:11:00,58.0,53.0,29.87,NNW,340,4.0,8.0,82,0.00,,,0.00,,2013-05-11 18:11:00,
2013-05-11 13:21:00,61.0,55.0,29.86,WSW,246,5.0,11.0,81,0.00,,,0.00,,2013-05-11 18:21:00,
2013-05-11 13:32:00,62.0,52.0,29.86,NW,319,5.0,12.0,69,0.00,,,0.00,,2013-05-11 18:32:00,
2013-05-11 13:42:00,62.0,52.0,29.86,NW,319,5.0,12.0,69,0.00,,,0.00,,2013-05-11 18:42:00,
2013-05-11 13:51:00,63.0,51.0,29.86,WNW,303,6.0,18.0,66,0.00,,,0.00,,2013-05-11 18:51:00,
2013-05-11 14:02:00,63.0,47.0,29.86,North,9,8.0,15.0,56,0.00,,,0.00,,2013-05-11 19:02:00,
2013-05-11 14:11:00,63.0,47.0,29.86,North,9,8.0,15.0,56,0.00,,,0.00,,2013-05-11 19:11:00,
2013-05-11 14:21:00,63.0,46.0,29.86,NNW,336,8.0,20.0,53,0.00,,,0.00,,2013-05-11 19:21:00,
2013-05-11 14:32:00,63.0,46.0,29.86,NNW,336,8.0,20.0,53,0.00,,,0.00,,2013-05-11 19:32:00,
2013-05-11 14:41:00,63.0,46.0,29.86,NNW,336,8.0,20.0,53,0.00,,,0.00,,2013-05-11 19:41:00,
2013-05-11 14:52:00,64.0,46.0,29.88,North,355,8.0,20.0,52,0.00,,,0.00,,2013-05-11 19:52:00,
2013-05-11 15:02:00,63.0,45.0,29.88,North,10,9.0,17.0,51,0.00,,,0.00,,2013-05-11 20:02:00,
2013-05-11 15:12:00,63.0,45.0,29.88,North,10,9.0,17.0,51,0.00,,,0.00,,2013-05-11 20:12:00,
2013-05-11 15:22:00,61.0,42.0,29.88,North,9,7.0,16.0,50,0.00,,,0.00,,2013-05-11 20:22:00,
2013-05-11 15:32:00,62.0,44.0,29.88,NNE,16,7.0,18.0,51,0.00,,,0.00,,2013-05-11 20:32:00,
2013-05-11 15:42:00,62.0,44.0,29.88,NNE,16,7.0,18.0,51,0.00,,,0.00,,2013-05-11 20:42:00,
2013-05-11 15:52:00,62.0,42.0,29.89,NNW,338,10.0,23.0,47,0.00,,,0.00,,2013-05-11 20:52:00,
2013-05-11 16:02:00,61.0,40.0,29.90,NNW,333,10.0,17.0,45,0.00,,,0.00,,2013-05-11 21:02:00,
2013-05-11 16:11:00,61.0,40.0,29.90,NNW,333,10.0,17.0,45,0.00,,,0.00,,2013-05-11 21:11:00,
2013-05-11 16:21:00,61.0,35.0,29.90,NNW,331,12.0,24.0,37,0.00,,,0.00,,2013-05-11 21:21:00,
2013-05-11 16:33:00,61.0,33.0,29.91,North,5,9.0,19.0,35,0.00,,,0.00,,2013-05-11 21:33:00,
2013-05-11 16:43:00,61.0,33.0,29.91,North,5,9.0,19.0,35,0.00,,,0.00,,2013-05-11 21:43:00,
2013-05-11 16:52:00,61.0,35.0,29.91,NW,321,11.0,18.0,37,0.00,,,0.00,,2013-05-11 21:52:00,
2013-05-11 17:02:00,59.0,31.0,29.92,North,11,10.0,20.0,35,0.00,,,0.00,,2013-05-11 22:02:00,
2013-05-11 17:13:00,59.0,31.0,29.92,North,11,10.0,20.0,35,0.00,,,0.00,,2013-05-11 22:13:00,
2013-05-11 17:23:00,60.0,33.0,29.93,North,355,11.0,17.0,36,0.00,,,0.00,,2013-05-11 22:23:00,
2013-05-11 17:33:00,59.0,31.0,29.93,NNW,333,10.0,18.0,35,0.00,,,0.00,,2013-05-11 22:33:00,
2013-05-11 17:42:00,59.0,31.0,29.93,NNW,333,10.0,18.0,35,0.00,,,0.00,,2013-05-11 22:42:00,
2013-05-11 17:52:00,59.0,33.0,29.94,North,355,8.0,24.0,37,0.00,,,0.00,,2013-05-11 22:52:00,
2013-05-11 18:02:00,57.0,30.0,29.95,NW,325,11.0,25.0,36,0.00,,,0.00,,2013-05-11 23:02:00,
2013-05-11 18:12:00,57.0,30.0,29.95,NW,325,11.0,25.0,36,0.00,,,0.00,,2013-05-11 23:12:00,
2013-05-11 18:22:00,57.0,32.0,29.96,NNW,333,7.0,17.0,38,0.00,,,0.00,,2013-05-11 23:22:00,
2013-05-11 18:32:00,56.0,31.0,29.96,NNW,329,10.0,17.0,39,0.00,,,0.00,,2013-05-11 23:32:00,
2013-05-11 18:42:00,56.0,31.0,29.96,NNW,329,10.0,17.0,39,0.00,,,0.00,,2013-05-11 23:42:00,
2013-05-11 18:52:00,56.0,31.0,29.97,NE,44,12.0,25.0,38,0.00,,,0.00,,2013-05-11 23:52:00,
2013-05-11 19:01:00,54.0,30.0,29.98,NNW,341,9.0,22.0,39,0.00,,,0.00,,2013-05-12 00:01:00,
2013-05-11 19:11:00,54.0,30.0,29.98,NNW,341,9.0,22.0,39,0.00,,,0.00,,2013-05-12 00:11:00,
2013-05-11 19:21:00,54.0,30.0,29.98,NNE,18,7.0,17.0,40,0.00,,,0.00,,2013-05-12 00:21:00,
2013-05-11 19:32:00,54.0,30.0,29.99,NNW,338,9.0,17.0,39,0.00,,,0.00,,2013-05-12 00:32:00,
2013-05-11 19:42:00,54.0,30.0,29.99,NNW,338,9.0,17.0,39,0.00,,,0.00,,2013-05-12 00:42:00,
2013-05-11 19:52:00,53.0,29.0,29.99,North,360,7.0,14.0,40,0.00,,,0.00,,2013-05-12 00:52:00,
2013-05-11 20:01:00,53.0,30.0,29.99,NNW,327,8.0,13.0,41,0.00,,,0.00,,2013-05-12 01:01:00,
2013-05-11 20:11:00,53.0,30.0,29.99,NNW,327,8.0,13.0,41,0.00,,,0.00,,2013-05-12 01:11:00,
2013-05-11 20:21:00,52.0,31.0,30.00,NNW,346,7.0,16.0,45,0.00,,,0.00,,2013-05-12 01:21:00,
2013-05-11 20:32:00,51.0,33.0,30.01,North,360,7.0,12.0,49,0.00,,,0.00,,2013-05-12 01:32:00,
2013-05-11 20:41:00,51.0,33.0,30.01,North,360,7.0,12.0,49,0.00,,,0.00,,2013-05-12 01:41:00,
2013-05-11 20:52:00,50.0,31.0,30.01,NNW,330,6.0,12.0,48,0.00,,,0.00,,2013-05-12 01:52:00,
2013-05-11 21:01:00,49.0,30.0,30.02,North,360,5.0,10.0,48,0.00,,,0.00,,2013-05-12 02:01:00,
2013-05-11 21:11:00,49.0,30.0,30.02,North,360,5.0,10.0,48,0.00,,,0.00,,2013-05-12 02:11:00,
2013-05-11 21:22:00,49.0,31.0,30.02,North,360,4.0,10.0,50,0.00,,,0.00,,2013-05-12 02:22:00,
2013-05-11 21:32:00,48.0,32.0,30.03,NNW,344,3.0,8.0,53,0.00,,,0.00,,2013-05-12 02:32:00,
2013-05-11 21:42:00,48.0,32.0,30.03,NNW,344,3.0,8.0,53,0.00,,,0.00,,2013-05-12 02:42:00,
2013-05-11 21:52:00,48.0,32.0,30.03,NNW,344,3.0,8.0,53,0.00,,,0.00,,2013-05-12 02:52:00,
2013-05-11 22:01:00,46.0,32.0,30.04,North,5,1.0,4.0,59,0.00,,,0.00,,2013-05-12 03:01:00,
2013-05-11 22:11:00,46.0,32.0,30.04,North,5,1.0,4.0,59,0.00,,,0.00,,2013-05-12 03:11:00,
2013-05-11 22:22:00,45.0,32.0,30.04,North,5,0.0,5.0,61,0.00,,,0.00,,2013-05-12 03:22:00,
2013-05-11 22:33:00,45.0,33.0,30.04,NNE,32,1.0,4.0,62,0.00,,,0.00,,2013-05-12 03:33:00,
2013-05-11 22:42:00,45.0,33.0,30.04,NNE,32,1.0,4.0,62,0.00,,,0.00,,2013-05-12 03:42:00,
2013-05-11 22:53:00,46.0,32.0,30.04,NW,326,3.0,7.0,59,0.00,,,0.00,,2013-05-12 03:53:00,
2013-05-11 23:02:00,-999.0,-99.9,30.05,North,11,2.0,6.0,58,0.00,,,0.00,,2013-05-12 04:02:00,
2013-05-11 23:12:00,46.0,32.0,30.05,North,11,2.0,6.0,58,0.00,,,0.00,,2013-05-12 04:12:00,
2013-05-11 23:22:00,45.0,31.0,30.05,NNW,337,3.0,8.0,58,0.00,,,0.00,,2013-05-12 04:22:00,
2013-05-11 23:33:00,45.0,31.0,30.05,WNW,289,3.0,9.0,57,0.00,,,0.00,,2013-05-12 04:33:00,
2013-05-11 23:43:00,45.0,31.0,30.05,WNW,289,3.0,9.0,57,0.00,,,0.00,,2013-05-12 04:43:00,
2013-05-11 23:52:00,44.0,30.0,30.05,North,5,3.0,7.0,57,0.00,,,0.00,,2013-05-12 04:52:00,